Location: Sternwarte ZA, Rosenfeld-Brittheim
(48.2889°N, 8.6789°E)
Time: 10:03:20
(UTC+02:00)

ISS - Pass Details

Date: 14 July 2018
Orbit: 402 x 408 km, 51.6° (Epoch: 19 July)

Event Time Altitude Azimuth Distance (km) Brightness Sun altitude
Exits shadow 04:12:57 - 280° (W) 2,219 -0.4 -11.2°
Reaches altitude 10° 04:14:50 10° 286° (WNW) 1,471 -1.2 -11.0°
Maximum altitude 04:18:00 44° 0° (N) 577 -2.6 -10.7°
Drops below altitude 10° 04:21:12 10° 75° (ENE) 1,473 -0.1 -10.4°
Sets 04:23:20 0° 82° (E) 2,335 0.9 -10.1°
